| time (UTC) | temp F | wind direction | speed MPH | gust MPH | rain 1hr in | rain 24hr in | rain mn in | humidity % | barometer mb |
| 20260503011608 | 65 | 338 | 9.0 | 18.0 | 0.00 | 0.00 | 0.00 | 87 | 1011.2 |
| 20260503010121 | 65 | 26 | 2.0 | 7.0 | 0.00 | 0.00 | 0.00 | 86 | 1010.9 |
| 20260503004557 | 66 | 332 | 3.0 | 13.0 | 0.00 | 0.00 | 0.00 | 82 | 1011.2 |
| 20260503001559 | 69 | 360 | 7.0 | 23.0 | 0.00 | 0.00 | 0.00 | 72 | 1010.9 |
| 20260503000057 | 70 | 333 | 9.0 | 21.0 | 0.00 | 0.00 | 0.00 | 70 | 1011.2 |
| 20260502234554 | 70 | 355 | 5.0 | 12.0 | 0.00 | 0.00 | 0.00 | 68 | 1010.9 |
| 20260502231554 | 70 | 12 | 6.0 | 21.0 | 0.00 | 0.00 | 0.00 | 68 | 1010.8 |
| 20260502230052 | 70 | 337 | 7.0 | 18.0 | 0.00 | 0.00 | 0.00 | 69 | 1010.6 |
| 20260502224555 | 69 | 355 | 5.0 | 12.0 | 0.00 | 0.00 | 0.00 | 70 | 1010.7 |
| 20260502221551 | 68 | 360 | 5.0 | 14.0 | 0.00 | 0.00 | 0.00 | 72 | 1011.3 |
| 20260502220049 | 68 | 355 | 4.0 | 12.0 | 0.00 | 0.00 | 0.00 | 73 | 1011.6 |
| 20260502214605 | 68 | 327 | 2.0 | 13.0 | 0.00 | 0.00 | 0.00 | 73 | 1011.5 |
| 20260502211600 | 68 | 355 | 1.0 | 11.0 | 0.00 | 0.00 | 0.00 | 71 | 1011.5 |
| 20260502210053 | 68 | 305 | 5.0 | 16.0 | 0.00 | 0.00 | 0.00 | 70 | 1011.9 |
| 20260502204550 | 69 | 360 | 5.0 | 14.0 | 0.00 | 0.00 | 0.00 | 69 | 1012.1 |
| 20260502201550 | 70 | 304 | 5.0 | 14.0 | 0.00 | 0.00 | 0.00 | 65 | 1012.0 |
| 20260502200046 | 70 | 336 | 2.0 | 12.0 | 0.00 | 0.00 | 0.00 | 64 | 1012.1 |
| 20260502194548 | 71 | 346 | 3.0 | 15.0 | 0.00 | 0.00 | 0.00 | 62 | 1012.1 |
| 20260502191545 | 71 | 315 | 6.0 | 15.0 | 0.00 | 0.00 | 0.00 | 59 | 1011.9 |
| 20260502190045 | 71 | 324 | 6.0 | 16.0 | 0.00 | 0.00 | 0.00 | 59 | 1011.6 |
| 20260502184544 | 71 | 360 | 4.0 | 13.0 | 0.00 | 0.00 | 0.00 | 59 | 1011.4 |
| 20260502181538 | 68 | 327 | 3.0 | 12.0 | 0.00 | 0.00 | 0.00 | 65 | 1011.7 |
| 20260502161528 | 64 | 16 | 0.0 | 0.0 | 0.00 | 0.00 | 0.00 | 73 | 1012.6 |
| 20260502151525 | 66 | 16 | 0.0 | 0.0 | 0.00 | 0.00 | 0.00 | 68 | 1012.9 |
| 20260502121505 | 71 | 13 | 0.0 | 0.0 | 0.00 | 0.00 | 0.00 | 55 | 1013.9 |
| 20260502114502 | 71 | 55 | 0.0 | 0.0 | 0.00 | 0.00 | 0.00 | 55 | 1014.2 |
| 20260502111501 | 71 | 33 | 0.0 | 3.0 | 0.00 | 0.00 | 0.00 | 55 | 1014.4 |
| 20260502110100 | 71 | 57 | 1.0 | 6.0 | 0.00 | 0.00 | 0.00 | 55 | 1014.4 |
| 20260502104600 | 71 | 39 | 2.0 | 6.0 | 0.00 | 0.00 | 0.00 | 55 | 1014.4 |
| 20260502101618 | 72 | 56 | 1.0 | 5.0 | 0.00 | 0.00 | 0.00 | 54 | 1014.5 |
| 20260502100111 | 72 | 20 | 0.0 | 4.0 | 0.00 | 0.00 | 0.00 | 54 | 1014.5 |
| 20260502070107 | 75 | 28 | 2.0 | 6.0 | 0.00 | 0.00 | 0.00 | 50 | 1014.4 |
| 20260502064620 | 75 | 5 | 3.0 | 7.0 | 0.00 | 0.00 | 0.00 | 49 | 1014.5 |
| 20260502061552 | 76 | 5 | 2.0 | 5.0 | 0.00 | 0.00 | 0.00 | 49 | 1014.5 |
| 20260502060051 | 76 | 26 | 0.0 | 4.0 | 0.00 | 0.00 | 0.00 | 50 | 1014.7 |
| 20260502054550 | 75 | 38 | 2.0 | 6.0 | 0.00 | 0.00 | 0.00 | 50 | 1014.7 |
| 20260502051548 | 75 | 14 | 2.0 | 7.0 | 0.00 | 0.00 | 0.00 | 50 | 1014.8 |
| 20260502050048 | 75 | 5 | 2.0 | 7.0 | 0.00 | 0.00 | 0.00 | 50 | 1014.9 |
| 20260502044545 | 75 | 22 | 0.0 | 8.0 | 0.00 | 0.00 | 0.00 | 50 | 1015.1 |
| 20260502041555 | 74 | 360 | 2.0 | 7.0 | 0.00 | 0.00 | 0.00 | 50 | 1015.4 |
| 20260502040042 | 75 | 11 | 2.0 | 5.0 | 0.00 | 0.00 | 0.00 | 50 | 1015.6 |
| 20260502034539 | 75 | 5 | 2.0 | 7.0 | 0.00 | 0.00 | 0.00 | 49 | 1015.8 |
| 20260502031536 | 75 | 28 | 4.0 | 9.0 | 0.00 | 0.00 | 0.00 | 50 | 1016.4 |
| 20260502030035 | 74 | 9 | 3.0 | 9.0 | 0.00 | 0.00 | 0.00 | 50 | 1016.6 |
| 20260502024533 | 74 | 355 | 4.0 | 12.0 | 0.00 | 0.00 | 0.00 | 50 | 1016.8 |
| 20260502021526 | 73 | 355 | 7.0 | 18.0 | 0.00 | 0.00 | 0.00 | 52 | 1017.3 |
| 20260502020024 | 73 | 23 | 4.0 | 12.0 | 0.00 | 0.00 | 0.00 | 52 | 1017.6 |
| 20260502014524 | 72 | 355 | 5.0 | 11.0 | 0.00 | 0.00 | 0.00 | 52 | 1017.8 |